| time (UTC) | temp F | wind direction | speed knots | gust knots | rain 1hr in | rain 24hr in | rain mn in | humidity % | barometer mb |
| 20260507064725 | 45 | 69 | 11.3 | 13.0 | 0.00 | 0.00 | 0.00 | 57 | |
| 20260507062724 | 44 | 71 | 11.3 | 13.9 | 0.00 | 0.00 | 0.00 | 59 | |
| 20260507054724 | 44 | 72 | 13.0 | 15.6 | 0.00 | 0.00 | 0.00 | 57 | |
| 20260507052724 | 44 | 66 | 12.2 | 14.8 | 0.00 | 0.00 | 0.00 | 55 | |
| 20260507050724 | 44 | 65 | 12.2 | 14.8 | 0.00 | 0.00 | 0.00 | 51 | |
| 20260507044724 | 43 | 60 | 11.3 | 14.8 | 0.00 | 0.00 | 0.00 | 51 | |
| 20260507042724 | 42 | 57 | 11.3 | 13.0 | 0.00 | 0.00 | 0.00 | 57 | |
| 20260507040724 | 41 | 54 | 11.3 | 13.0 | 0.00 | 0.00 | 0.00 | 58 | |
| 20260507032725 | 41 | 53 | 11.3 | 13.0 | 0.00 | 0.00 | 0.00 | 59 | |
| 20260507030724 | 40 | 51 | 12.2 | 13.9 | 0.00 | 0.00 | 0.00 | 57 | |
| 20260507024724 | 40 | 48 | 12.2 | 13.9 | 0.00 | 0.00 | 0.00 | 53 | |
| 20260507022724 | 40 | 50 | 13.0 | 13.9 | 0.00 | 0.00 | 0.00 | 56 | |
| 20260507020724 | 40 | 51 | 12.2 | 13.9 | 0.00 | 0.00 | 0.00 | 62 | |
| 20260507012723 | 40 | 54 | 13.0 | 13.9 | 0.00 | 0.00 | 0.00 | 58 | |
| 20260507010724 | 40 | 54 | 12.2 | 13.9 | 0.00 | 0.00 | 0.00 | 58 | |
| 20260507004723 | 41 | 44 | 12.2 | 13.9 | 0.00 | 0.00 | 0.00 | 52 | |
| 20260507001051 | 42 | 44 | 13.0 | 14.8 | 0.00 | 0.00 | 0.00 | 49 | |
| 20260506234724 | 42 | 41 | 10.4 | 12.2 | 0.00 | 0.00 | 0.00 | 53 | |
| 20260506232723 | 42 | 36 | 10.4 | 12.2 | 0.00 | 0.00 | 0.00 | 54 | |
| 20260506230725 | 42 | 38 | 9.6 | 11.3 | 0.00 | 0.00 | 0.00 | 53 | |
| 20260506224723 | 42 | 27 | 10.4 | 12.2 | 0.00 | 0.00 | 0.00 | 55 | |
| 20260506222723 | 42 | 24 | 9.6 | 11.3 | 0.00 | 0.00 | 0.00 | 60 | |
| 20260506220723 | 40 | 16 | 7.8 | 10.4 | 0.00 | 0.00 | 0.00 | 91 | |
| 20260506214723 | 40 | 346 | 6.1 | 6.1 | 0.00 | 0.00 | 0.00 | 91 | |
| 20260506212723 | 40 | 313 | 6.1 | 7.0 | 0.00 | 0.00 | 0.00 | 89 | |
| 20260506210723 | 41 | 285 | 7.0 | 7.0 | 0.00 | 0.00 | 0.00 | 86 | |
| 20260506204723 | 41 | 259 | 7.8 | 8.7 | 0.00 | 0.00 | 0.00 | 85 | |
| 20260506202723 | 41 | 256 | 8.7 | 9.6 | 0.00 | 0.00 | 0.00 | 84 | |
| 20260506200723 | 41 | 250 | 9.6 | 10.4 | 0.00 | 0.00 | 0.00 | 84 | |
| 20260506194722 | 42 | 237 | 9.6 | 11.3 | 0.00 | 0.00 | 0.00 | 77 | |
| 20260506192722 | 42 | 234 | 9.6 | 11.3 | 0.00 | 0.00 | 0.00 | 74 | |
| 20260506190722 | 43 | 235 | 9.6 | 11.3 | 0.00 | 0.00 | 0.00 | 73 | |
| 20260506184722 | 43 | 237 | 9.6 | 11.3 | 0.00 | 0.00 | 0.00 | 72 | |
| 20260506182723 | 43 | 232 | 8.7 | 11.3 | 0.00 | 0.00 | 0.00 | 71 | |
| 20260506180723 | 44 | 245 | 10.4 | 13.0 | 0.00 | 0.00 | 0.00 | 70 | |
| 20260506174722 | 44 | 241 | 11.3 | 13.0 | 0.00 | 0.00 | 0.00 | 70 | |
| 20260506172721 | 44 | 234 | 11.3 | 14.8 | 0.00 | 0.00 | 0.00 | 73 | |
| 20260506170722 | 44 | 227 | 11.3 | 13.9 | 0.00 | 0.00 | 0.00 | 73 | |
| 20260506164721 | 45 | 240 | 13.0 | 14.8 | 0.00 | 0.00 | 0.00 | 71 | |
| 20260506162722 | 44 | 234 | 10.4 | 13.9 | 0.00 | 0.00 | 0.00 | 70 | |
| 20260506160722 | 45 | 233 | 10.4 | 13.0 | 0.00 | 0.00 | 0.00 | 69 | |
| 20260506154722 | 45 | 234 | 9.6 | 13.0 | 0.00 | 0.00 | 0.00 | 68 | |
| 20260506152722 | 45 | 245 | 13.0 | 16.5 | 0.00 | 0.00 | 0.00 | 66 | |
| 20260506150721 | 46 | 243 | 13.0 | 16.5 | 0.00 | 0.00 | 0.00 | 65 | |
| 20260506144721 | 45 | 244 | 13.9 | 19.1 | 0.00 | 0.00 | 0.00 | 70 | |
| 20260506142721 | 45 | 243 | 15.6 | 18.2 | 0.00 | 0.00 | 0.00 | 67 | |
| 20260506140721 | 45 | 237 | 15.6 | 18.2 | 0.00 | 0.00 | 0.00 | 66 | |
| 20260506134721 | 46 | 241 | 16.5 | 18.2 | 0.00 | 0.00 | 0.00 | 70 | |
| 20260506132721 | 45 | 242 | 14.8 | 18.2 | 0.00 | 0.00 | 0.00 | 64 | |
| 20260506130720 | 47 | 249 | 17.4 | 20.0 | 0.00 | 0.00 | 0.00 | 62 | |
| 20260506124720 | 47 | 244 | 14.8 | 19.1 | 0.00 | 0.00 | 0.00 | 62 | |
| 20260506122721 | 47 | 234 | 14.8 | 19.1 | 0.00 | 0.00 | 0.00 | 63 | |
| 20260506120720 | 47 | 227 | 15.6 | 18.2 | 0.00 | 0.00 | 0.00 | 67 | |
| 20260506114721 | 45 | 226 | 15.6 | 19.1 | 0.00 | 0.00 | 0.00 | 72 | |
| 20260506112721 | 46 | 229 | 16.5 | 19.1 | 0.00 | 0.00 | 0.00 | 73 | |
| 20260506110721 | 46 | 230 | 15.6 | 20.9 | 0.00 | 0.00 | 0.00 | 74 | |
| 20260506104721 | 45 | 225 | 16.5 | 20.0 | 0.00 | 0.00 | 0.00 | 73 | |
| 20260506102722 | 46 | 224 | 13.0 | 19.1 | 0.00 | 0.00 | 0.00 | 71 | |
| 20260506100722 | 44 | 221 | 13.9 | 18.2 | 0.00 | 0.00 | 0.00 | 76 | |
| 20260506094722 | 46 | 224 | 13.0 | 16.5 | 0.00 | 0.00 | 0.00 | 72 | |
| 20260506092721 | 45 | 231 | 10.4 | 14.8 | 0.00 | 0.00 | 0.00 | 76 | |
| 20260506090721 | 45 | 234 | 12.2 | 14.8 | 0.00 | 0.00 | 0.00 | 74 | |
| 20260506084722 | 45 | 237 | 13.0 | 14.8 | 0.00 | 0.00 | 0.00 | 73 | |
| 20260506082722 | 46 | 235 | 13.0 | 15.6 | 0.00 | 0.00 | 0.00 | 72 | |
| 20260506080721 | 44 | 232 | 9.6 | 13.9 | 0.00 | 0.00 | 0.00 | 79 | |
| 20260506072722 | 45 | 230 | 7.8 | 11.3 | 0.00 | 0.00 | 0.00 | 78 | |
| 20260506070721 | 44 | 236 | 8.7 | 10.4 | 0.00 | 0.00 | 0.00 | 75 |